[[{"header":{"parameterUnit":"m.s-1","parameterCategory":1,"la1":30.2992,"la2":30.254,"lo1":-89.0895,"lo2":-89.0443,"dy":0.0025,"dx":0.0025,"nx":19,"ny":19,"refTime":"2026-05-15T03:00:00:Z","depth":0,"parameterNumber":2,"parameterNumberName":"U-component_of_WINDS"},"data":[0,0,0,-2.6964,-2.6967,-2.7092,-2.7093,-2.7239,-2.7241,0,0,0,0,0,0,0,0,0,0,0,-2.6917,-2.6918,-2.6964,-2.6967,-2.7092,-2.7093,-2.7239,-2.7241,0,0,0,0,0,0,0,0,0,0,0,-2.6917,-2.6918,-2.6918,-2.6967,-2.7092,-2.7093,-2.7239,-2.715,0,0,0,0,0,0,0,0,0,0,-2.703,-2.6977,-2.6917,-2.6918,-2.6968,-2.7092,-2.7093,-2.7146,-2.7155,-2.7176,0,-2.7191,0,-2.7218,-2.7249,-2.725,0,0,0,-2.6975,-2.6968,-2.7011,-2.6918,-2.6969,-2.7092,-2.7038,-2.7151,-2.7162,-2.7189,-2.7193,-2.7199,-2.722,-2.725,-2.7251,-2.7343,-2.7343,0,0,-2.6968,-2.6935,-2.7004,-2.7018,-2.6996,-2.7034,-2.7042,-2.7158,-2.7161,-2.7194,-2.7203,-2.7223,-2.7251,-2.7252,-2.7343,-2.7343,0,0,0,-2.6943,-2.6929,-2.697,-2.7011,-2.7035,-2.7037,-2.7046,-2.7156,-2.7172,-2.7204,-2.7224,-2.7252,-2.7253,-2.7343,-2.7343,-2.7312,0,0,0,-2.6939,-2.6915,-2.6966,-2.6947,-2.7032,-2.7096,-2.7041,-2.7163,-2.7178,-2.7224,-2.7252,-2.7255,-2.7343,-2.7343,-2.7313,-2.7304,0,0,0,-2.6912,-2.6912,-2.6926,-2.6945,-2.6998,-2.7095,-2.7118,-2.7167,-2.719,-2.725,-2.7255,-2.7343,-2.7343,-2.7314,-2.7305,-2.7318,0,0,0,-2.6875,-2.6898,-2.6925,-2.696,-2.6996,-2.7075,-2.7118,-2.7179,-2.7227,-2.7253,-2.7343,-2.7343,-2.7314,-2.7306,-2.7318,-2.7322,-2.7321,0,0,-2.6886,-2.6898,-2.6921,-2.6949,-2.7014,-2.7059,-2.7121,-2.7197,-2.7234,-2.7305,-2.7308,-2.7313,-2.7305,-2.7318,-2.7325,-2.7324,0,0,0,-2.6913,-2.6929,-2.6954,-2.6998,-2.7056,-2.7105,-2.7176,-2.7204,-2.7266,-2.7263,-2.7323,-2.7319,-2.7328,-2.7331,-2.733,-2.734,-2.7343,-2.7343,-2.7343,-2.6881,-2.6926,-2.6967,-2.7028,-2.707,-2.7142,-2.7181,-2.7233,-2.7267,-2.728,-2.7301,-2.73,-2.7302,-2.7302,-2.7312,-2.7307,-2.7307,-2.7307,-2.7307,-2.6901,-2.6931,-2.6975,-2.7031,-2.7079,-2.7127,-2.7199,-2.7221,-2.7274,-2.7287,-2.7298,-2.7307,-2.7299,-2.731,-2.7305,-2.7306,-2.7306,-2.7306,-2.7306,-2.6884,-2.6906,-2.694,-2.7008,-2.7056,-2.7118,-2.7166,-2.7209,-2.7251,-2.7261,-2.7288,-2.7288,-2.7294,-2.7271,-2.7271,-2.7271,-2.7271,-2.7271,-2.7271,-2.6853,-2.6892,-2.6927,-2.6991,-2.7025,-2.7075,-2.7149,-2.7185,-2.7235,-2.7263,-2.7264,-2.7297,-2.7289,-2.7286,-2.7271,-2.7271,-2.7271,-2.7271,-2.7271,-2.6856,-2.6862,-2.6915,-2.6949,-2.7028,-2.7073,-2.7128,-2.7197,-2.7233,-2.7255,-2.7287,-2.7274,-2.7291,-2.7292,-2.729,-2.7277,-2.7277,-2.7277,-2.7277,-2.6841,-2.6854,-2.6918,-2.6969,-2.7025,-2.708,-2.714,-2.7199,-2.7261,-2.7286,-2.7295,-2.7296,-2.7295,-2.7312,-2.7313,-2.7311,-2.7304,-2.7304,-2.7304,-2.6845,-2.6865,-2.6907,-2.6966,-2.7031,-2.7087,-2.7145,-2.7205,-2.7277,-2.7306,-2.7307,-2.7306,-2.7308,-2.7306,-2.7334,-2.7334,-2.7333,0,0]},{"header":{"parameterUnit":"m.s-1","parameterCategory":1,"la1":30.2992,"la2":30.254,"lo1":-89.0895,"lo2":-89.0443,"dy":0.0025,"dx":0.0025,"nx":19,"ny":19,"refTime":"2026-05-15T03:00:00:Z","depth":0,"parameterNumber":3,"parameterNumberName":"V-component_of_WINDS"},"data":[0,0,0,3.6589,3.6591,3.669,3.6691,3.6796,3.6796,0,0,0,0,0,0,0,0,0,0,0,3.6545,3.6545,3.6589,3.6591,3.669,3.6691,3.6795,3.6796,0,0,0,0,0,0,0,0,0,0,0,3.6545,3.6545,3.6545,3.6591,3.669,3.6691,3.6795,3.6729,0,0,0,0,0,0,0,0,0,0,3.6636,3.6581,3.6545,3.6545,3.6592,3.669,3.6691,3.6726,3.6733,3.6741,0,3.6743,0,3.6771,3.6802,3.6802,0,0,0,3.6602,3.6575,3.6615,3.6545,3.6593,3.669,3.6649,3.673,3.6738,3.675,3.6745,3.6749,3.6773,3.6802,3.6803,3.6811,3.681,0,0,3.6597,3.6555,3.6609,3.6619,3.6601,3.6645,3.6651,3.6735,3.6727,3.6745,3.6752,3.6775,3.6803,3.6803,3.6811,3.681,0,0,0,3.6573,3.6551,3.6589,3.6614,3.6633,3.6648,3.6655,3.6723,3.6739,3.6753,3.6776,3.6803,3.6804,3.6812,3.6811,3.6745,0,0,0,3.6571,3.6537,3.6586,3.6562,3.6631,3.6679,3.6641,3.6733,3.6744,3.6775,3.6803,3.6805,3.6812,3.6811,3.6749,3.6721,0,0,0,3.6544,3.6534,3.6544,3.6559,3.66,3.6679,3.67,3.6737,3.6757,3.6802,3.6805,3.6813,3.6811,3.6751,3.6726,3.6711,0,0,0,3.6503,3.6484,3.6542,3.653,3.6599,3.6638,3.67,3.6731,3.6762,3.6804,3.6812,3.6811,3.6752,3.6729,3.6713,3.669,3.6677,0,0,3.6456,3.6477,3.6473,3.6528,3.6545,3.6626,3.6635,3.6703,3.6746,3.6787,3.6788,3.6748,3.6726,3.6712,3.6617,3.6606,0,0,0,3.6444,3.6441,3.6455,3.6482,3.6533,3.6576,3.6647,3.6673,3.671,3.6758,3.674,3.6729,3.6722,3.6713,3.6703,3.67,3.6805,3.6805,3.6805,3.6317,3.6373,3.6371,3.6439,3.6465,3.654,3.6566,3.6614,3.6663,3.6658,3.667,3.6606,3.6593,3.6587,3.6583,3.6663,3.6663,3.6663,3.6663,3.6253,3.6257,3.6324,3.6345,3.6406,3.6425,3.6498,3.6532,3.656,3.6601,3.6598,3.6636,3.6573,3.6572,3.6658,3.6659,3.666,3.666,3.666,3.6174,3.6186,3.6218,3.6264,3.6294,3.6365,3.6389,3.6443,3.6495,3.6492,3.6511,3.6512,3.652,3.6497,3.6497,3.6497,3.6497,3.6497,3.6497,3.608,3.6118,3.6131,3.6185,3.621,3.6251,3.6328,3.6355,3.6399,3.6437,3.6437,3.6487,3.6556,3.6572,3.6493,3.6494,3.6494,3.6495,3.6495,3.5992,3.6021,3.604,3.6065,3.6135,3.6161,3.6232,3.6283,3.6313,3.6324,3.6376,3.6418,3.6443,3.6451,3.6464,3.6363,3.6363,3.6363,3.6363,3.5925,3.5944,3.5977,3.6014,3.6057,3.6123,3.6145,3.6205,3.6272,3.6295,3.6319,3.6342,3.6347,3.6369,3.6379,3.6392,3.6275,3.6275,3.6275,3.5874,3.59,3.5906,3.5972,3.6031,3.6081,3.6103,3.6145,3.6228,3.6272,3.6315,3.6318,3.6356,3.6365,3.6408,3.6422,3.6447,0,0]}]]